Location: Coatesville
(39.9830°N, 75.8240°W)
Time: 23:42:11
(UTC-05:00)

Envisat - Visible Passes

Search period start: 18 November 2019 00:00
Search period end: 28 November 2019 00:00
Orbit: 764 x 766 km, 98.1° (Epoch: 18 November)

Date Brightness Start Highest point End Pass type
(mag) Time Alt. Az. Time Alt. Az. Time Alt. Az.
18 Nov 2.9 17:53:53 10° SSE 17:58:56 72° ENE 18:04:00 10° N visible
18 Nov 6.1 19:36:23 10° WSW 19:38:27 12° W 19:40:31 10° WNW visible
19 Nov 5.5 06:04:02 10° NE 06:08:16 26° E 06:12:29 10° SSE visible
19 Nov 3.7 17:17:52 10° SE 17:22:20 32° ENE 17:26:50 10° N visible
19 Nov 5.0 18:57:00 10° SSW 19:01:20 28° W 19:05:41 10° NW visible
20 Nov 6.4 05:29:39 10° ENE 05:31:08 11° E 05:32:37 10° ESE visible
20 Nov 3.4 18:19:24 10° S 18:24:25 65° W 18:29:29 10° NNW visible
21 Nov 3.0 17:42:44 10° SSE 17:47:41 57° ENE 17:52:40 10° N visible
21 Nov 5.8 19:23:58 10° SW 19:27:03 16° W 19:30:08 10° NW visible
22 Nov 5.9 05:53:09 10° NE 05:56:54 21° E 06:00:39 10° SE visible
22 Nov 3.9 17:07:00 10° ESE 17:11:10 26° ENE 17:15:19 10° NNE visible
22 Nov 4.5 18:45:21 10° SSW 18:49:59 36° W 18:54:40 10° NNW visible
23 Nov 3.0 18:08:03 10° S 18:13:08 82° WSW 18:18:14 10° NNW visible
24 Nov 4.8 06:17:54 10° NNE 06:22:35 36° E 06:27:14 10° SSE visible
24 Nov 3.3 17:31:40 10° SE 17:36:28 44° ENE 17:41:17 10° N visible
24 Nov 5.5 19:11:57 10° SW 19:15:40 20° W 19:19:25 10° NW visible
25 Nov 6.0 05:42:25 10° NE 05:45:32 16° E 05:48:38 10° SE visible
25 Nov 4.1 18:33:49 10° S 18:38:40 46° W 18:43:33 10° NNW visible
26 Nov 2.9 17:56:48 10° SSE 18:01:52 79° ENE 18:06:58 10° N visible
26 Nov 6.2 19:40:02 10° WSW 19:41:27 11° W 19:42:52 10° WNW visible
27 Nov 5.3 06:06:52 10° NE 06:11:14 28° E 06:15:36 10° SSE visible
27 Nov 3.5 17:20:41 10° SE 17:25:15 35° ENE 17:29:51 10° N visible
27 Nov 5.1 19:00:07 10° SSW 19:04:18 26° W 19:08:31 10° NW visible
